timestamp,wind_dir_avg,wind_spd_avg,wind_spd_max_dir,wind_spd_gust,battery_voltage,lat,long
2021-10-13 00:04:01+00:00,340.0,9.93,338.0,11.6,12.65,47.59359,-54.27349
2021-10-13 00:14:01+00:00,337.0,10.23,339.0,11.25,12.65,47.59359,-54.27349
2021-10-13 00:24:01+00:00,334.0,9.29,334.0,10.2,12.65,47.59359,-54.27349
2021-10-13 00:34:01+00:00,332.0,9.03,339.0,10.42,12.65,47.59359,-54.27349
2021-10-13 00:44:01+00:00,337.0,8.6,339.0,9.95,12.65,47.59359,-54.27349
2021-10-13 00:54:01+00:00,338.0,8.07,343.0,9.34,12.65,47.59359,-54.27349
2021-10-13 01:04:01+00:00,343.0,7.41,342.0,8.42,12.65,47.59359,-54.27349
2021-10-13 01:14:01+00:00,359.0,7.22,358.0,8.21,12.57,47.59359,-54.27349
2021-10-13 01:24:01+00:00,3.0,8.2,0.0,9.38,12.57,47.59359,-54.27349
2021-10-13 01:34:01+00:00,352.0,8.3,355.0,9.43,12.57,47.59359,-54.27349
2021-10-13 01:44:01+00:00,344.0,7.98,340.0,9.34,12.57,47.59359,-54.27349
2021-10-13 01:54:01+00:00,339.0,8.16,340.0,9.42,12.57,47.59359,-54.27349
2021-10-13 02:04:01+00:00,343.0,8.62,344.0,9.7,12.57,47.59359,-54.27349
2021-10-13 02:14:01+00:00,344.0,9.72,340.0,10.93,12.57,47.59359,-54.27349
2021-10-13 02:24:01+00:00,344.0,11.41,348.0,12.68,12.57,47.59359,-54.27349
2021-10-13 02:34:01+00:00,343.0,10.79,342.0,11.81,12.57,47.59359,-54.27349
2021-10-13 02:44:01+00:00,353.0,10.0,352.0,11.28,12.57,47.59359,-54.27349
2021-10-13 02:54:01+00:00,346.0,10.44,344.0,11.56,12.57,47.59359,-54.27349
2021-10-13 03:04:01+00:00,344.0,10.12,342.0,11.65,12.57,47.59359,-54.27349
2021-10-13 03:14:00+00:00,345.0,8.56,345.0,9.29,12.57,47.59359,-54.27349
2021-10-13 03:24:00+00:00,350.0,8.27,344.0,9.37,12.57,47.59359,-54.27349
2021-10-13 03:34:00+00:00,338.0,8.9,340.0,10.04,12.57,47.59359,-54.27349
2021-10-13 03:44:00+00:00,345.0,8.64,345.0,9.7,12.57,47.59359,-54.27349
2021-10-13 03:54:00+00:00,351.0,9.42,350.0,10.44,12.57,47.59359,-54.27349
2021-10-13 04:04:00+00:00,346.0,9.57,348.0,10.23,12.57,47.59359,-54.27349
2021-10-13 04:14:01+00:00,345.0,10.55,344.0,12.02,12.57,47.59359,-54.27349
2021-10-13 04:24:01+00:00,349.0,9.41,345.0,10.64,12.57,47.59359,-54.27349
2021-10-13 04:34:01+00:00,350.0,8.9,356.0,10.31,12.57,47.59359,-54.27349
2021-10-13 04:44:01+00:00,354.0,7.71,353.0,9.14,12.57,47.59359,-54.27349
2021-10-13 04:54:01+00:00,354.0,7.62,351.0,9.36,12.57,47.59359,-54.27349
2021-10-13 05:04:01+00:00,357.0,8.92,349.0,10.39,12.57,47.59359,-54.27349
2021-10-13 05:14:01+00:00,353.0,9.14,350.0,10.17,12.57,47.59359,-54.27349
2021-10-13 05:24:01+00:00,1.0,7.79,2.0,9.51,12.57,47.59359,-54.27349
2021-10-13 05:34:01+00:00,2.0,9.87,359.0,10.77,12.57,47.59359,-54.27349
2021-10-13 05:44:01+00:00,12.0,9.19,13.0,10.22,12.57,47.59359,-54.27349
2021-10-13 05:54:01+00:00,8.0,8.5,11.0,9.9,12.57,47.59359,-54.27349
2021-10-13 06:04:01+00:00,2.0,8.75,358.0,10.51,12.57,47.59359,-54.27349
2021-10-13 06:14:00+00:00,5.0,7.01,2.0,8.04,12.57,47.59359,-54.27349
2021-10-13 06:24:00+00:00,6.0,7.96,14.0,9.04,12.57,47.59359,-54.27349
2021-10-13 06:34:00+00:00,0.0,7.93,0.0,8.93,12.57,47.59359,-54.27349
2021-10-13 06:44:00+00:00,12.0,8.34,15.0,9.62,12.57,47.59359,-54.27349
2021-10-13 06:54:00+00:00,8.0,7.3,0.0,9.01,12.57,47.59359,-54.27349
2021-10-13 07:04:00+00:00,1.0,8.16,359.0,10.43,12.57,47.59359,-54.27349
2021-10-13 07:14:00+00:00,359.0,8.27,2.0,9.74,12.49,47.59359,-54.27349
2021-10-13 07:24:00+00:00,8.0,7.85,13.0,9.26,12.49,47.59359,-54.27349
2021-10-13 07:34:00+00:00,3.0,8.24,7.0,9.37,12.49,47.59359,-54.27349
2021-10-13 07:44:00+00:00,5.0,6.54,4.0,8.67,12.49,47.59359,-54.27349
2021-10-13 07:54:00+00:00,4.0,7.49,2.0,9.29,12.49,47.59359,-54.27349
2021-10-13 08:04:00+00:00,5.0,8.65,3.0,9.88,12.49,47.59359,-54.27349
2021-10-13 08:14:00+00:00,16.0,8.02,10.0,10.48,12.49,47.59359,-54.27349
2021-10-13 08:24:00+00:00,6.0,8.32,3.0,10.31,12.49,47.59359,-54.27349
2021-10-13 08:34:00+00:00,4.0,8.93,13.0,10.71,12.49,47.59359,-54.27349
2021-10-13 08:44:00+00:00,3.0,10.82,4.0,11.9,12.49,47.59359,-54.27349
2021-10-13 08:54:00+00:00,4.0,11.04,1.0,12.74,12.49,47.59359,-54.27349
2021-10-13 09:04:00+00:00,8.0,11.12,6.0,13.68,12.49,47.59359,-54.27349
2021-10-13 09:14:01+00:00,1.0,10.23,4.0,12.07,12.41,47.59359,-54.27349
2021-10-13 09:24:01+00:00,1.0,11.18,1.0,12.56,12.41,47.59359,-54.27349
2021-10-13 09:34:01+00:00,359.0,10.66,1.0,12.52,12.41,47.59359,-54.27349
2021-10-13 09:44:01+00:00,359.0,10.42,356.0,11.75,12.41,47.59359,-54.27349
2021-10-13 09:54:01+00:00,2.0,9.97,4.0,11.09,12.41,47.59359,-54.27349
2021-10-13 10:04:01+00:00,9.0,8.06,10.0,9.45,12.41,47.59359,-54.27349
2021-10-13 10:14:01+00:00,359.0,9.62,357.0,10.85,12.41,47.59359,-54.27349
2021-10-13 10:24:01+00:00,0.0,9.42,355.0,10.58,12.41,47.59359,-54.27349
2021-10-13 10:34:01+00:00,3.0,9.66,5.0,10.51,12.41,47.59359,-54.27349
2021-10-13 10:44:01+00:00,11.0,8.83,10.0,10.21,12.41,47.59359,-54.27349
2021-10-13 10:54:01+00:00,14.0,8.34,17.0,9.74,12.41,47.59359,-54.27349
2021-10-13 11:04:01+00:00,2.0,7.68,359.0,8.87,12.41,47.59359,-54.27349
2021-10-13 11:14:01+00:00,0.0,7.76,2.0,8.95,12.89,47.59359,-54.27349
2021-10-13 11:24:01+00:00,2.0,6.07,6.0,7.08,12.89,47.59359,-54.27349
2021-10-13 11:34:01+00:00,5.0,9.0,8.0,12.38,12.89,47.59359,-54.27349
2021-10-13 11:44:01+00:00,1.0,11.35,2.0,13.06,12.89,47.59359,-54.27349
2021-10-13 11:54:01+00:00,12.0,10.07,15.0,11.16,12.89,47.59359,-54.27349
2021-10-13 12:04:01+00:00,1.0,9.31,4.0,10.51,12.89,47.59359,-54.27349
2021-10-13 12:14:01+00:00,348.0,10.15,339.0,11.61,13.6,47.59359,-54.27349
2021-10-13 12:24:01+00:00,358.0,10.2,4.0,12.13,13.6,47.59359,-54.27349
2021-10-13 12:34:01+00:00,358.0,10.25,358.0,11.54,13.6,47.59359,-54.27349
2021-10-13 12:44:01+00:00,359.0,9.64,353.0,10.9,13.6,47.59359,-54.27349
2021-10-13 12:54:01+00:00,13.0,8.8,14.0,10.44,13.6,47.59359,-54.27349
2021-10-13 13:04:01+00:00,7.0,7.37,17.0,8.24,13.6,47.59359,-54.27349
2021-10-13 13:14:01+00:00,6.0,9.49,4.0,11.15,13.68,47.59359,-54.27349
2021-10-13 13:24:01+00:00,1.0,10.21,357.0,11.65,13.68,47.59359,-54.27349
2021-10-13 13:34:01+00:00,354.0,10.99,350.0,12.21,13.68,47.59359,-54.27349
2021-10-13 13:44:01+00:00,350.0,10.79,349.0,11.97,13.68,47.59359,-54.27349
2021-10-13 13:54:01+00:00,353.0,9.99,355.0,11.47,13.68,47.59359,-54.27349
2021-10-13 14:04:01+00:00,0.0,9.17,359.0,10.26,13.68,47.59359,-54.27349
2021-10-13 15:14:01+00:00,1.0,9.5,358.0,10.62,13.68,47.59359,-54.27349
2021-10-13 15:24:01+00:00,10.0,8.2,16.0,9.72,13.68,47.59359,-54.27349
2021-10-13 15:34:01+00:00,10.0,7.29,14.0,9.54,13.68,47.59359,-54.27349
2021-10-13 15:44:01+00:00,354.0,8.43,357.0,9.95,13.68,47.59359,-54.27349
2021-10-13 15:54:01+00:00,348.0,7.39,348.0,8.3,13.68,47.59359,-54.27349
2021-10-13 16:04:01+00:00,340.0,6.29,339.0,7.28,13.68,47.59359,-54.27349
2021-10-13 16:14:01+00:00,351.0,7.13,347.0,7.92,13.68,47.59359,-54.27349
2021-10-13 16:24:01+00:00,347.0,7.67,340.0,8.87,13.68,47.59359,-54.27349
2021-10-13 16:34:01+00:00,350.0,8.37,347.0,9.36,13.68,47.59359,-54.27349
2021-10-13 16:44:01+00:00,354.0,7.83,350.0,9.21,13.68,47.59359,-54.27349
2021-10-13 16:54:01+00:00,340.0,7.37,345.0,8.64,13.68,47.59359,-54.27349
2021-10-13 17:04:01+00:00,348.0,7.94,350.0,9.75,13.68,47.59359,-54.27349
2021-10-13 17:14:01+00:00,352.0,7.71,3.0,8.66,13.92,47.59359,-54.27349
2021-10-13 17:24:01+00:00,4.0,7.47,12.0,8.72,13.92,47.59359,-54.27349
2021-10-13 17:34:01+00:00,21.0,8.08,20.0,9.45,13.92,47.59359,-54.27349
2021-10-13 17:44:01+00:00,359.0,7.61,2.0,8.82,13.92,47.59359,-54.27349
2021-10-13 17:54:01+00:00,13.0,7.71,18.0,9.09,13.92,47.59359,-54.27349
2021-10-13 18:04:01+00:00,10.0,7.27,18.0,9.28,13.92,47.59359,-54.27349
2021-10-13 18:14:01+00:00,2.0,8.86,1.0,9.41,13.92,47.59359,-54.27349
2021-10-13 18:24:01+00:00,4.0,9.23,2.0,10.04,13.92,47.59359,-54.27349
2021-10-13 18:34:01+00:00,14.0,5.78,18.0,6.82,13.92,47.59359,-54.27349
2021-10-13 18:44:01+00:00,356.0,7.91,359.0,8.92,13.92,47.59359,-54.27349
2021-10-13 18:54:01+00:00,9.0,6.98,359.0,8.92,13.92,47.59359,-54.27349
2021-10-13 19:04:01+00:00,350.0,8.5,347.0,9.34,13.92,47.59359,-54.27349
2021-10-13 20:14:01+00:00,11.0,9.38,13.0,10.88,13.44,47.59359,-54.27349
2021-10-13 20:24:01+00:00,20.0,9.51,19.0,11.39,13.44,47.59359,-54.27349
2021-10-13 20:34:01+00:00,14.0,9.79,16.0,11.42,13.44,47.59359,-54.27349
2021-10-13 20:44:01+00:00,14.0,10.04,11.0,11.2,13.44,47.59359,-54.27349
2021-10-13 20:54:01+00:00,4.0,7.11,359.0,8.18,13.44,47.59359,-54.27349
2021-10-13 21:04:01+00:00,28.0,8.54,28.0,9.57,13.44,47.59359,-54.27349
2021-10-13 21:14:01+00:00,31.0,8.19,31.0,8.95,12.81,47.59359,-54.27349
2021-10-13 21:24:01+00:00,32.0,7.41,32.0,8.07,12.81,47.59359,-54.27349
2021-10-13 21:34:01+00:00,23.0,8.6,23.0,9.65,12.81,47.59359,-54.27349
2021-10-13 21:44:01+00:00,6.0,7.67,359.0,9.66,12.81,47.59359,-54.27349
2021-10-13 21:54:01+00:00,6.0,8.05,6.0,10.32,12.81,47.59359,-54.27349
2021-10-13 22:04:01+00:00,6.0,8.75,3.0,10.55,12.81,47.59359,-54.27349
2021-10-13 22:14:01+00:00,2.0,8.08,3.0,9.81,12.65,47.59359,-54.27349
2021-10-13 22:24:01+00:00,7.0,8.07,7.0,9.72,12.65,47.59359,-54.27349
2021-10-13 22:34:01+00:00,2.0,9.01,0.0,10.15,12.65,47.59359,-54.27349
2021-10-13 22:44:01+00:00,353.0,6.75,345.0,8.04,12.65,47.59359,-54.27349
2021-10-13 22:54:01+00:00,0.0,7.37,358.0,8.31,12.65,47.59359,-54.27349
2021-10-13 23:04:01+00:00,13.0,6.59,7.0,8.07,12.65,47.59359,-54.27349
2021-10-13 23:14:00+00:00,3.0,4.79,10.0,5.87,12.65,47.59359,-54.27349
2021-10-13 23:24:00+00:00,21.0,6.42,20.0,7.25,12.65,47.59359,-54.27349
2021-10-13 23:34:00+00:00,18.0,4.99,32.0,6.28,12.65,47.59359,-54.27349
2021-10-13 23:44:00+00:00,7.0,5.5,12.0,6.44,12.65,47.59359,-54.27349
2021-10-13 23:54:00+00:00,2.0,4.98,5.0,6.24,12.65,47.59359,-54.27349
